Venice, Italy

3:56 PM CEST on August 18, 2017 (GMT +0200)
Tessera

Weather History for LIPZ - October, 2013

Change the Weather History Date:

Tuesday, October 15, 2013

  Actual Average Record
Temperature  
Mean Temperature 58 °F -  
Max Temperature 62 °F 59 °F 73 °F (2000)
Min Temperature 55 °F 44 °F 41 °F (1997)
Degree Days  
Heating Degree Days 6    
Growing Degree Days 8 (Base 50)    
Moisture  
Dew Point 54 °F    
Average Humidity 87    
Maximum Humidity 100    
Minimum Humidity 77    
Precipitation  
Precipitation 0.00 in 0.10 in - ()
Sea Level Pressure  
Sea Level Pressure 30.00 in    
Wind  
Wind Speed 1 mph ()    
Max Wind Speed 7 mph    
Max Gust Speed -    
Visibility 2.6 miles    
Events      
Averages and records for this station are not official NWS values.
T = Trace of Precipitation, MM = Missing Value Source: Averaged Metar Reports

Daily Weather History Graph

Daily Weather History Graph

Search for Another Location

Airport or City:

Trip Planner

Search our weather history database for the weather conditions in past years. The results will help you decide how hot, cold, wet, or windy it might be!

Date:

Astronomy

Oct. 15, 2013 Rise Set
Actual Time 7:26 AM CEST 6:25 PM CEST
Civil Twilight 6:57 AM CEST 6:55 PM CEST
Nautical Twilight 6:22 AM CEST 7:29 PM CEST
Astronomical Twilight 5:48 AM CEST 8:03 PM CEST
Moon 4:29 PM CEST (10/15) 3:20 AM CEST (10/15)
Length of Visible Light 11h 57m
Length of Day
10h 58m
Waxing Gibbous, 85% of the Moon is Illuminated
Oct 15
Waxing Gibbous
Oct 19
Full
Oct 27
Last Quarter
Nov 3
New
Nov 10
First Quarter

Hourly Weather History & Observations

Time (CEST) Temp. Dew Point Humidity Pressure Visibility Wind Dir Wind Speed Gust Speed Precip Events Conditions
12:20 AM 57.2 °F 53.6 °F 88% 30.12 in 3.7 mi Variable 1.2 mph - N/A   Mostly Cloudy
12:50 AM 57.2 °F 53.6 °F 88% 30.09 in 2.5 mi Variable 2.3 mph - N/A   Mostly Cloudy
1:20 AM 57.2 °F 55.4 °F 94% 30.09 in 2.5 mi Variable 1.2 mph - N/A   Mostly Cloudy
2:20 AM 57.2 °F 53.6 °F 88% 30.09 in 2.5 mi Calm Calm - N/A   Mostly Cloudy
2:50 AM 57.2 °F 53.6 °F 88% 30.09 in 2.5 mi Calm Calm - N/A   Mostly Cloudy
3:50 AM 55.4 °F 53.6 °F 94% 30.06 in 2.5 mi Calm Calm - N/A   Mostly Cloudy
4:20 AM 55.4 °F 53.6 °F 94% 30.09 in 2.5 mi Calm Calm - N/A   Mostly Cloudy
4:50 AM 55.4 °F 53.6 °F 94% 30.06 in 2.5 mi Variable 1.2 mph - N/A   Mostly Cloudy
5:20 AM 55.4 °F 53.6 °F 94% 30.06 in 1.9 mi Variable 1.2 mph - N/A   Mostly Cloudy
5:50 AM 55.4 °F 55.4 °F 100% 30.06 in 1.9 mi Variable 1.2 mph - N/A   Mostly Cloudy
6:20 AM 55.4 °F 55.4 °F 100% 30.06 in 1.9 mi Variable 2.3 mph - N/A   Mostly Cloudy
6:50 AM 55.4 °F 55.4 °F 100% 30.04 in 1.9 mi Variable 2.3 mph - N/A   Mostly Cloudy
7:20 AM 55.4 °F 53.6 °F 94% 30.04 in 1.7 mi Variable 1.2 mph - N/A   Mostly Cloudy
7:50 AM 55.4 °F 53.6 °F 94% 30.06 in 1.7 mi Calm Calm - N/A   Mostly Cloudy
8:20 AM 55.4 °F 53.6 °F 94% 30.06 in 1.7 mi Calm Calm - N/A   Mostly Cloudy
8:50 AM 55.4 °F 53.6 °F 94% 30.06 in 1.6 mi Variable 1.2 mph - N/A   Scattered Clouds
9:20 AM 55.4 °F 53.6 °F 94% 30.06 in 1.6 mi Calm Calm - N/A   Mostly Cloudy
9:50 AM 57.2 °F 55.4 °F 94% 30.06 in 2.2 mi Variable 2.3 mph - N/A   Mostly Cloudy
10:20 AM 57.2 °F 55.4 °F 94% 30.06 in - Variable 1.2 mph - N/A   Mostly Cloudy
10:50 AM 59.0 °F 55.4 °F 88% 30.06 in 2.5 mi Variable 1.2 mph - N/A   Mostly Cloudy
11:20 AM 59.0 °F 53.6 °F 82% 30.04 in 2.8 mi Variable 1.2 mph - N/A   Mostly Cloudy
11:50 AM 59.0 °F 55.4 °F 88% 30.04 in 3.1 mi Variable 2.3 mph - N/A   Mostly Cloudy
12:20 PM 62.6 °F 57.2 °F 82% 30.04 in 2.8 mi Calm Calm - N/A   Mostly Cloudy
12:50 PM 60.8 °F 53.6 °F 77% 30.04 in 3.1 mi Variable 1.2 mph - N/A   Mostly Cloudy
1:20 PM 59.0 °F 53.6 °F 82% 30.01 in 3.1 mi Variable 1.2 mph - N/A   Mostly Cloudy
1:50 PM 60.8 °F 53.6 °F 77% 30.01 in 3.7 mi Variable 1.2 mph - N/A   Mostly Cloudy
2:20 PM 60.8 °F 53.6 °F 77% 30.01 in 3.7 mi Variable 1.2 mph - N/A   Mostly Cloudy
2:50 PM 60.8 °F 53.6 °F 77% 29.98 in 3.1 mi Variable 2.3 mph - N/A   Mostly Cloudy
3:20 PM 59.0 °F 53.6 °F 82% 29.98 in 3.1 mi SSW 4.6 mph - N/A   Mostly Cloudy
3:50 PM 60.8 °F 55.4 °F 82% 29.98 in 3.1 mi Variable 3.5 mph - N/A   Mostly Cloudy
4:20 PM 60.8 °F 53.6 °F 77% 29.95 in 2.5 mi Variable 3.5 mph - N/A   Scattered Clouds
4:50 PM 60.8 °F 53.6 °F 77% 29.95 in 3.1 mi Variable 2.3 mph - N/A   Mist
5:20 PM 60.8 °F 53.6 °F 77% 29.95 in 3.1 mi Variable 2.3 mph - N/A   Scattered Clouds
5:50 PM 59.0 °F 53.6 °F 82% 29.92 in 3.1 mi Variable 1.2 mph - N/A   Scattered Clouds
6:20 PM 59.0 °F 51.8 °F 77% 29.92 in 3.1 mi Variable 1.2 mph - N/A   Scattered Clouds
6:50 PM 57.2 °F 53.6 °F 88% 29.92 in 2.5 mi Variable 3.5 mph - N/A   Scattered Clouds
7:20 PM 59.0 °F 55.4 °F 88% 29.92 in 2.5 mi Variable 3.5 mph - N/A   Scattered Clouds
7:50 PM 59.0 °F 55.4 °F 88% 29.92 in 2.5 mi Variable 3.5 mph - N/A   Mostly Cloudy
8:20 PM 59.0 °F 53.6 °F 82% 29.92 in 3.1 mi Variable 1.2 mph - N/A   Mostly Cloudy
8:50 PM 59.0 °F 53.6 °F 82% 29.89 in 3.1 mi Variable 2.3 mph - N/A   Mostly Cloudy
9:20 PM 59.0 °F 55.4 °F 88% 29.89 in 3.1 mi Variable 3.5 mph - N/A   Mostly Cloudy
9:50 PM 59.0 °F 55.4 °F 88% 29.89 in 3.1 mi Variable 3.5 mph - N/A   Mostly Cloudy
10:20 PM 59.0 °F 55.4 °F 88% 29.89 in 3.1 mi SSW 6.9 mph - N/A   Mostly Cloudy
10:50 PM 59.0 °F 55.4 °F 88% 29.89 in 3.1 mi SSW 5.8 mph - N/A   Mostly Cloudy
11:20 PM 59.0 °F 55.4 °F 88% 29.86 in 2.5 mi SSW 5.8 mph - N/A   Mostly Cloudy
11:50 PM 59.0 °F 55.4 °F 88% 29.86 in 2.2 mi Variable 3.5 mph - N/A   Mostly Cloudy